Location: Fours
(44.3167°N, 6.7000°E)
Time: 09:38:29
(UTC+00:00)

ISS - Visible Passes

Search period start: 28 September 2021 00:00
Search period end: 08 October 2021 00:00
Orbit: 417 x 422 km, 51.6° (Epoch: 28 September)

Date Brightness Start Highest point End Pass type
(mag) Time Alt. Az. Time Alt. Az. Time Alt. Az.
28 Sep -2.6 19:06:05 10° NW 19:09:08 32° NNE 19:09:08 32° NNE visible
29 Sep -2.3 18:18:40 10° NW 18:21:37 27° NNE 18:23:31 17° ENE visible
29 Sep -1.0 19:55:22 10° WNW 19:56:28 19° WNW 19:56:28 19° WNW visible
30 Sep -3.3 19:07:53 10° NW 19:10:48 54° N 19:10:48 54° N visible
01 Oct -3.1 18:20:20 10° NW 18:23:34 42° NNE 18:25:07 25° E visible
01 Oct -0.7 19:57:14 10° WNW 19:58:04 16° W 19:58:04 16° W visible
02 Oct -3.1 19:09:27 10° WNW 19:12:22 52° WSW 19:12:22 52° WSW visible
03 Oct -3.8 18:21:40 10° WNW 18:25:03 90° S 18:26:41 28° ESE visible
04 Oct -3.6 17:33:52 10° NW 17:37:12 59° NNE 17:40:32 10° ESE visible
04 Oct -1.7 19:11:07 10° W 19:13:45 21° SW 19:13:58 21° SW visible
05 Oct -2.4 18:22:54 10° WNW 18:26:00 34° SW 18:28:21 15° SSE visible
06 Oct -3.2 17:34:47 10° WNW 17:38:06 57° SW 17:41:24 10° SE visible
07 Oct -0.9 18:24:39 10° W 18:26:25 14° SW 18:28:10 10° SSW visible
